COSMOS 1867

Last updated on Sat Aug 15 2026 00:02:07 GMT+0000 (Coordinated Universal Time)

1 18187U 87060A 26226.39712674 -.00000089 00000+0 42300-5 0 9994 2 18187 65.0084 225.0365 0017856 281.7044 78.2037 14.31521078 42517
UTC large
Height (km)
Speed (km/s)
/
Latitude / Longitude
Inclination (degrees)
Orbital Period (minutes)
Azimuth
Elevation
Range (km)
Doppler Factor

Next 0 passes for location: London (51.5072 / 0.1276)

No passes found over London.
COSMOS 1867